Regional Weather Roundup
Issued by NWS

Home | Current Version | Previous Version | Text Only | Print | Product List | Glossary Off
Versions: 1 2 3 4 5 6 7 8 9 10 11 12 13 14 15 16 17 18 19 20 21 22 23 24 25 26 27 28 29 30 31 32 33 34 35 36 37 38 39 40 41 42 43 44 45 46 47 48 49 50

000
ASUS45 KABQ 211001
RWRNM
NEW MEXICO REGIONAL WEATHER ROUNDUP
NATIONAL WEATHER SERVICE ALBUQUERQUE NM
400 AM MDT FRI JUL 21 2017

NOTE: "FAIR" MEANS FEW OR NO CLOUDS BELOW 12,000 FEET AGL WITH NO
       SIGNIFICANT WEATHER OR OBSTRUCTIONS TO VISION.

      THIS PRODUCT IS RELEASED AS TWO VERSIONS.  ONE VERSION NEAR
      THE TOP OF THE HOUR CONTAINING PRELIMINARY DATA FROM ALBUQUERQUE
      AND OTHER STATIONS.  A FINAL VERSION WITH ADDITIONAL DATA IS
      ISSUED ABOUT 10 MINUTES AFTER THE HOUR.

NMZ501-503-504-510>518-211100-
NORTHWEST PLATEAU/NORTHCENTRAL MOUNTAINS

CITY           SKY/WX    TMP DP  RH WIND       PRES   REMARKS
FARMINGTON     FAIR      64  57  78 SW5       30.17F
LOS ALAMOS     FAIR      67  49  53 SW5       30.32S
SANTA FE       FAIR      64  52  64 CALM      30.26F
TAOS           FAIR      61  45  55 CALM      30.33S
ANGEL FIRE     FAIR      48  45  89 CALM      30.41F

$$
NMZ402-403-502-505>509-211100-
WESTCENTRAL MOUNTAINS/SOUTHWEST MOUNTAINS

CITY           SKY/WX    TMP DP  RH WIND       PRES   REMARKS
GALLUP         CLOUDY    64  56  75 S5        30.27F
GRANTS         FAIR      60  53  75 SE5       30.29F
SILVER CITY    FAIR      64  62  95 NW3       30.19S

$$
NMZ407-409-411-412-211100-
SOUTHERN DESERTS

CITY           SKY/WX    TMP DP  RH WIND       PRES   REMARKS
DEMING         FAIR      67  67 100 CALM      30.12F
LAS CRUCES     FAIR      69  64  83 N3        30.13S
HOLLOMAN AFB   FAIR      70  60  70 N5        30.11F
ALAMOGORDO     FAIR      70  59  68 CALM      30.11F
T OR C         FAIR      67  59  75 CALM      30.14F

$$
NMZ519>523-211100-
CENTRAL VALLEYS/CENTRAL HIGHLANDS

CITY           SKY/WX    TMP DP  RH WIND       PRES   REMARKS
ALBUQUERQUE    FAIR      69  55  60 SE6       30.20F
DOUBLE EAGLE   FAIR      62  50  64 W5        30.23F
CLINES CORNERS FAIR      58  51  78 W9        30.31F
BELEN          NOT AVBL
SOCORRO        FAIR      66  57  73 CALM      30.17F

$$
NMZ524>526-539-540-211100-
SOUTHCENTRAL MOUNTAINS

CITY           SKY/WX    TMP DP  RH WIND       PRES   REMARKS
RUIDOSO        FAIR      59  54  82 S3        30.31F

$$
NMZ527>531-211100-
NORTHEAST HIGHLANDS/NORTHEAST PLAINS

CITY           SKY/WX    TMP DP  RH WIND       PRES   REMARKS
LAS VEGAS      FAIR      63  49  60 SW12      30.27F
RATON          FAIR      61  47  59 N9        30.20F
CLAYTON        FAIR      69  51  52 SW9       30.11F

$$
NMZ532>537-211100-
EASTCENTRAL PLAINS

CITY           SKY/WX    TMP DP  RH WIND       PRES   REMARKS
SANTA ROSA     FAIR      67  52  59 SE7       30.14S
TUCUMCARI      FAIR      75  54  47 SW15      30.07F
CANNON AFB     FAIR      69  52  55 SW6       30.15F
CLOVIS AIRPORT FAIR      70  53  54 W8        30.14S

$$
NMZ028-029-538-211100-
SOUTHEAST PLAINS

CITY           SKY/WX    TMP DP  RH WIND       PRES   REMARKS
ROSWELL        FAIR      72  53  51 S6        30.07F
ARTESIA        FAIR      73  54  49 SE6       30.07S
CARLSBAD       FAIR      72  57  59 CALM      30.04F
HOBBS          FAIR      68  54  60 E5        30.10F


$$




USA.gov is the U.S. government's official web portal to all federal, state and local government web resources and services.